Retour au catalogue

METEOR 2-17 DEB

ActifPO
NORAD 28991·DEBRIS·🇷🇺 Russia

Lancé Jan 30, 1988 depuis Plesetsk Cosmodrome

Loading…

Prochains Passages (prochaines 24 heures)

TLE

FraisSource: Space-Track

Époque: Sep 14, 2026, 11:01 UTC

1 28991U 88005F   26257.45909616  .00001018  00000-0  56245-3 0  9997
2 28991  82.5208 147.4201 0030106 354.7226 178.2731 14.10365538 78532

Suivez METEOR 2-17 DEB en temps réel avec AllMySat

Download on the App Store